Location: Arroyo Grande
(40.2671°N, 4.2512°W)
Time: 15:22:57
(UTC+00:00)

CZ-4 R/B - Pass Details

Date: 03 February 2023
Orbit: 525 x 587 km, 97.7° (Epoch: 21 March)

Event Time Altitude Azimuth Distance (km) Brightness Sun altitude
Rises 19:34:55 0° 172° (S) 2,802 4.9 -22.6°
Reaches altitude 10° 19:37:05 10° 175° (S) 1,902 4.0 -23.0°
Maximum altitude 19:41:11 68° 258° (WSW) 627 1.7 -23.8°
Drops below altitude 10° 19:45:17 10° 343° (NNW) 1,889 4.2 -24.6°
Sets 19:47:26 0° 345° (NNW) 2,781 5.1 -25.0°
